Regional Weather Roundup
Issued by NWS Northern Indiana

Home | Current Version | Previous Version | Text Only | Print | Product List | Glossary On
Versions: 1 2 3 4 5 6 7 8 9 10 11 12 13 14 15 16 17 18 19 20 21 22 23 24 25 26 27 28 29 30 31 32 33 34 35 36 37 38 39 40 41 42 43 44 45 46 47 48 49 50
000
ASUS43 KIWX 221210
RWRIWX

KIWX WEATHER ROUNDUP
NATIONAL WEATHER SERVICE NORTHERN INDIANA
800 AM EDT FRI MAY 22 2015

NOTE: "FAIR" INDICATES FEW OR NO CLOUDS BELOW 12,000 FEET WITH NO
SIGNIFICANT WEATHER AND/OR OBSTRUCTIONS TO VISIBILITY.

* THESE STATIONS ARE NOT UNDER NWS QUALITY CONTROL. THEY ALSO MAY NOT
  REPORT WEATHER SUCH AS PRECIPITATION OR FOG.

INZ001>027-221300-
NORTHERN INDIANA

CITY           SKY/WX    TMP DP  RH WIND       PRES   REMARKS
GARY*          SUNNY     54  48  82 N5        30.15R
VALPARAISO     SUNNY     52  45  77 NE3       30.14R
6HR MIN TEMP:  46; 6HR MAX TEMP:  55;

MICHIGAN CITY* SUNNY     46  46 100 CALM      30.14R
LAPORTE*       SUNNY     53  47  79 NE3       30.14R
6HR MIN TEMP:  43; 6HR MAX TEMP:  57;

KNOX*          SUNNY     50  43  76 CALM      30.13R
SOUTH BEND     SUNNY     54  45  71 NE6       30.15R
6HR MIN TEMP:  44; 6HR MAX TEMP:  56;

ELKHART*       SUNNY     54  46  76 E3        30.15R
GOSHEN         SUNNY     52  45  77 NE3       30.14R
6HR MIN TEMP:  44; 6HR MAX TEMP:  52; 6HR PCP: TRACE;

MONTICELLO*    SUNNY     50  45  83 CALM      30.14R
6HR MIN TEMP:  46; 6HR MAX TEMP:  51;

LOGANSPORT*    SUNNY     50  41  71 CALM      30.15R
ROCHESTER*     SUNNY     55  45  67 SW3       30.14R
WARSAW*        SUNNY     50  45  81 CALM      30.14R
ANGOLA*        SUNNY     52  39  62 CALM      30.13R
FORT WAYNE     MOSUNNY   52  43  71 CALM      30.15R
6HR MIN TEMP:  45; 6HR MAX TEMP:  52;

HUNTINGTON*    SUNNY     51  43  73 SW6       30.14R
6HR MIN TEMP:  41; 6HR MAX TEMP:  51;

PERU/GRISSOM   SUNNY     51  44  77 SW3       30.13R
6HR MIN TEMP:  47; 6HR MAX TEMP:  52;

MARION*        SUNNY     48  42  79 S3        30.16R
6HR MIN TEMP:  29; 6HR MAX TEMP:  86;


$$
INZ028>050-221300-
CENTRAL INDIANA

CITY           SKY/WX    TMP DP  RH WIND       PRES   REMARKS
LAFAYETTE      SUNNY     50  45  83 W5        30.15R
6HR MIN TEMP:  44; 6HR MAX TEMP:  50;

KOKOMO*        SUNNY     54  45  71 W6        30.15R
6HR MIN TEMP:  46; 6HR MAX TEMP:  54;

MUNCIE*        MOSUNNY   51  43  74 SW10      30.16R
6HR MIN TEMP:  48; 6HR MAX TEMP:  51;

INDIANAPOLIS   MOSUNNY   51  42  71 SW10      30.15R
6HR MIN TEMP:  44; 6HR MAX TEMP:  51;


$$
MIZ043>046-050>051-056>058-064>065-071>073-077>080-221300-
SOUTHWEST LOWER MICHIGAN

CITY           SKY/WX    TMP DP  RH WIND       PRES   REMARKS
BATTLE CREEK   SUNNY     50  28  42 N7        30.15R
6HR MIN TEMP:  46; 6HR MAX TEMP:  54;

BENTON HARBOR  SUNNY     49  45  86 E5        30.14R
6HR MIN TEMP:  42; 6HR MAX TEMP:  56; 6HR PCP:  0.05;

COLDWATER*     SUNNY     49  36  61 N5        30.14R
6HR MIN TEMP:  43; 6HR MAX TEMP:  55;

HILLSDALE*     MOSUNNY   51  34  53 N5        30.13R
HOLLAND        SUNNY     51  29  42 E6        30.17R
6HR MIN TEMP:  43; 6HR MAX TEMP:  52;

GRAND RAPIDS   SUNNY     50  30  46 NE5       30.16R
6HR MIN TEMP:  45; 6HR MAX TEMP:  53;

KALAMAZOO      MOSUNNY   52  27  38 NE5       30.15R
6HR MIN TEMP:  49; 6HR MAX TEMP:  59; 6HR PCP:  0.01;

STURGIS*       SUNNY     52  45  76 CALM      30.14R
THREE RIVERS*  FAIR      50  47  88 CALM      30.15R
6HR MIN TEMP:  45; 6HR MAX TEMP:  55;


$$
OHZ001>008-015>018-024>025-221300-
NORTHWEST OHIO

CITY           SKY/WX    TMP DP  RH WIND       PRES   REMARKS
WAUSEON*       FAIR      54  37  54 N10       30.12R
DEFIANCE       MOSUNNY   54  46  74 SW3       30.13R
6HR MIN TEMP:  44; 6HR MAX TEMP:  55;

FINDLAY        CLOUDY    51  43  74 W8        30.12R
6HR MIN TEMP:  46; 6HR MAX TEMP:  52; 6HR PCP: TRACE;

TOLEDO EXPRESS MOSUNNY   53  41  63 N7        30.12R
6HR MIN TEMP:  50; 6HR MAX TEMP:  54; 6HR PCP: TRACE;

TOLEDO METCALF MOSUNNY   54  41  61 NW8       30.13R
6HR MIN TEMP:  50; 6HR MAX TEMP:  54;

LIMA           PTSUNNY   50  41  71 SW6       30.13R
6HR MIN TEMP:  47; 6HR MAX TEMP:  50;


$$
AND FOR LAKE MICHIGAN COASTAL AND OPEN LAKE BUOY OBSERVATIONS

STATION/POSITION TEMP    WIND        PRES    VSBY  WAVE
                 AIR SEA DIR/SP/G                  HT/PER
                 (F)     (DEG/KT/KT) (MB)    (MI)  (FT/S)
CALUMET HARBOR    49     360/  6/  8   N/A
MICHIGAN CITY     51      30/  7/  8   N/A
BURNS HARBOR      51      50/  8/  9 1021.0R
SAINT JOSEPH      51      10/  1/  5 1020.7R
SOUTH LAKE BUOY   40 38  340/  8/  8 1022.3R
4 MI NW BRIDGMAN  53 53  130/  8/ 10   N/A           1/ 2
MICHIGAN CITY     51 50   70/  6/  8   N/A           1

$$
&&


USA.gov is the U.S. government's official web portal to all federal, state and local government web resources and services.